| time (UTC) | temp F | wind direction | speed MPH | gust MPH | rain 1hr in | rain 24hr in | rain mn in | humidity % | barometer mb |
| 20260508014524 | 46 | 0.0 | 0.0 | 0.00 | 0.00 | 0.00 | 99 | ||
| 20260508013528 | 46 | 0.0 | 0.0 | 0.00 | 0.00 | 0.00 | 98 | ||
| 20260508012526 | 46 | 0.0 | 0.0 | 0.00 | 0.00 | 0.00 | 98 | ||
| 20260508011532 | 46 | 0.0 | 0.0 | 0.00 | 0.00 | 0.00 | 98 | ||
| 20260508010519 | 46 | 0.0 | 0.0 | 0.00 | 0.00 | 0.00 | 98 | ||
| 20260508005531 | 46 | 0.0 | 0.0 | 0.00 | 0.00 | 0.00 | 98 | ||
| 20260508004527 | 46 | 0.0 | 0.0 | 0.00 | 0.00 | 0.00 | 98 | ||
| 20260508003525 | 46 | 0.0 | 0.0 | 0.00 | 0.00 | 0.00 | 98 | ||
| 20260508002526 | 46 | 327 | 0.0 | 1.0 | 0.00 | 0.00 | 0.00 | 98 | |
| 20260508001531 | 46 | 355 | 0.0 | 1.0 | 0.00 | 0.00 | 0.00 | 98 | |
| 20260508000523 | 46 | 353 | 0.0 | 2.0 | 0.00 | 0.00 | 0.00 | 98 | |
| 20260507235522 | 46 | 0.0 | 0.0 | 0.00 | 0.00 | 0.00 | 98 | ||
| 20260507234523 | 46 | 0.0 | 0.0 | 0.00 | 0.00 | 0.00 | 98 | ||
| 20260507233532 | 46 | 0.0 | 0.0 | 0.00 | 0.00 | 0.00 | 98 | ||
| 20260507232523 | 46 | 0.0 | 0.0 | 0.00 | 0.00 | 0.00 | 98 | ||
| 20260507231531 | 46 | 0.0 | 0.0 | 0.00 | 0.00 | 0.00 | 98 | ||
| 20260507230523 | 46 | 0.0 | 0.0 | 0.00 | 0.00 | 0.00 | 98 | ||
| 20260507225522 | 46 | 0.0 | 0.0 | 0.00 | 0.00 | 0.00 | 98 | ||
| 20260507224523 | 46 | 0.0 | 0.0 | 0.00 | 0.00 | 0.00 | 98 | ||
| 20260507223531 | 46 | 0.0 | 0.0 | 0.00 | 0.00 | 0.00 | 98 | ||
| 20260507222523 | 46 | 0.0 | 0.0 | 0.00 | 0.00 | 0.00 | 98 | ||
| 20260507221536 | 46 | 1 | 0.0 | 1.0 | 0.00 | 0.00 | 0.00 | 98 | |
| 20260507220527 | 46 | 0.0 | 0.0 | 0.00 | 0.00 | 0.00 | 98 | ||
| 20260507215536 | 46 | 0.0 | 0.0 | 0.00 | 0.00 | 0.00 | 98 | ||
| 20260507214524 | 46 | 0.0 | 0.0 | 0.00 | 0.00 | 0.00 | 98 | ||
| 20260507213531 | 46 | 0.0 | 0.0 | 0.00 | 0.00 | 0.00 | 97 | ||
| 20260507212523 | 46 | 0.0 | 0.0 | 0.00 | 0.00 | 0.00 | 97 | ||
| 20260507211531 | 46 | 0.0 | 0.0 | 0.00 | 0.00 | 0.00 | 97 | ||
| 20260507210523 | 46 | 0.0 | 0.0 | 0.00 | 0.00 | 0.00 | 97 | ||
| 20260507205531 | 46 | 0.0 | 0.0 | 0.00 | 0.00 | 0.00 | 97 | ||
| 20260507204525 | 46 | 0.0 | 0.0 | 0.00 | 0.00 | 0.00 | 97 | ||
| 20260507203534 | 46 | 0.0 | 0.0 | 0.00 | 0.00 | 0.00 | 97 | ||
| 20260507202526 | 46 | 0.0 | 0.0 | 0.00 | 0.00 | 0.00 | 97 | ||
| 20260507201546 | 46 | 0.0 | 0.0 | 0.00 | 0.00 | 0.00 | 97 | ||
| 20260507200523 | 46 | 0.0 | 0.0 | 0.00 | 0.00 | 0.00 | 97 | ||
| 20260507195531 | 46 | 0.0 | 0.0 | 0.00 | 0.00 | 0.00 | 97 | ||
| 20260507194523 | 46 | 0.0 | 0.0 | 0.00 | 0.00 | 0.00 | 97 | ||
| 20260507193531 | 46 | 0.0 | 0.0 | 0.00 | 0.00 | 0.00 | 97 | ||
| 20260507192526 | 46 | 343 | 0.0 | 2.0 | 0.00 | 0.00 | 0.00 | 96 | |
| 20260507191520 | 46 | 337 | 0.0 | 1.0 | 0.00 | 0.00 | 0.00 | 96 | |
| 20260507190526 | 46 | 342 | 0.0 | 2.0 | 0.00 | 0.00 | 0.00 | 96 | |
| 20260507185531 | 47 | 341 | 0.0 | 2.0 | 0.00 | 0.00 | 0.00 | 96 | |
| 20260507184526 | 47 | 342 | 1.0 | 2.0 | 0.00 | 0.00 | 0.00 | 96 | |
| 20260507183527 | 47 | 334 | 1.0 | 2.0 | 0.00 | 0.00 | 0.00 | 96 | |
| 20260507182523 | 47 | 346 | 2.0 | 3.0 | 0.00 | 0.00 | 0.00 | 96 | |
| 20260507181531 | 47 | 350 | 2.0 | 5.0 | 0.00 | 0.00 | 0.00 | 96 | |
| 20260507180523 | 47 | 341 | 2.0 | 4.0 | 0.00 | 0.00 | 0.00 | 96 | |
| 20260507175531 | 47 | 336 | 3.0 | 4.0 | 0.00 | 0.00 | 0.00 | 96 | |
| 20260507174527 | 47 | 350 | 3.0 | 5.0 | 0.00 | 0.00 | 0.00 | 96 | |
| 20260507173534 | 47 | 340 | 3.0 | 5.0 | 0.00 | 0.00 | 0.00 | 96 | |
| 20260507172523 | 47 | 349 | 2.0 | 4.0 | 0.00 | 0.00 | 0.00 | 95 | |
| 20260507171534 | 47 | 345 | 3.0 | 4.0 | 0.00 | 0.00 | 0.00 | 95 | |
| 20260507170523 | 47 | 344 | 3.0 | 5.0 | 0.00 | 0.00 | 0.00 | 95 | |
| 20260507165525 | 47 | 343 | 2.0 | 5.0 | 0.00 | 0.00 | 0.00 | 94 | |
| 20260507164526 | 47 | 336 | 2.0 | 4.0 | 0.00 | 0.00 | 0.00 | 94 | |
| 20260507163534 | 47 | 345 | 2.0 | 4.0 | 0.00 | 0.00 | 0.00 | 95 | |
| 20260507162526 | 47 | 344 | 2.0 | 4.0 | 0.00 | 0.00 | 0.00 | 95 | |
| 20260507161531 | 47 | 339 | 3.0 | 5.0 | 0.00 | 0.00 | 0.00 | 96 | |
| 20260507160520 | 47 | 345 | 2.0 | 5.0 | 0.00 | 0.00 | 0.00 | 96 | |
| 20260507155531 | 47 | 336 | 1.0 | 4.0 | 0.00 | 0.00 | 0.00 | 96 | |
| 20260507154523 | 47 | 328 | 1.0 | 2.0 | 0.00 | 0.00 | 0.00 | 96 | |
| 20260507153534 | 47 | 342 | 1.0 | 2.0 | 0.00 | 0.00 | 0.00 | 96 | |
| 20260507152522 | 47 | 339 | 1.0 | 4.0 | 0.00 | 0.00 | 0.00 | 95 | |
| 20260507151522 | 47 | 336 | 1.0 | 3.0 | 0.00 | 0.00 | 0.00 | 96 | |
| 20260507150526 | 47 | 333 | 2.0 | 4.0 | 0.00 | 0.00 | 0.00 | 95 | |
| 20260507145533 | 47 | 339 | 2.0 | 4.0 | 0.00 | 0.00 | 0.00 | 94 | |
| 20260507144523 | 47 | 343 | 2.0 | 4.0 | 0.00 | 0.00 | 0.00 | 94 | |
| 20260507143531 | 47 | 343 | 2.0 | 4.0 | 0.00 | 0.00 | 0.00 | 93 | |
| 20260507142526 | 47 | 333 | 2.0 | 4.0 | 0.00 | 0.00 | 0.00 | 93 | |
| 20260507141533 | 47 | 340 | 2.0 | 4.0 | 0.00 | 0.00 | 0.00 | 93 | |
| 20260507140523 | 47 | 338 | 1.0 | 3.0 | 0.00 | 0.00 | 0.00 | 94 | |
| 20260507135524 | 47 | 343 | 2.0 | 4.0 | 0.00 | 0.00 | 0.00 | 95 | |
| 20260507134523 | 47 | 340 | 2.0 | 4.0 | 0.00 | 0.00 | 0.00 | 95 | |
| 20260507133534 | 47 | 344 | 3.0 | 4.0 | 0.00 | 0.00 | 0.00 | 95 | |
| 20260507132523 | 47 | 340 | 2.0 | 4.0 | 0.00 | 0.00 | 0.00 | 95 | |
| 20260507131535 | 47 | 338 | 3.0 | 7.0 | 0.00 | 0.00 | 0.00 | 95 | |
| 20260507130528 | 47 | 335 | 3.0 | 6.0 | 0.00 | 0.00 | 0.00 | 95 | |
| 20260507125531 | 47 | 344 | 3.0 | 5.0 | 0.00 | 0.00 | 0.00 | 95 | |
| 20260507124526 | 47 | 347 | 3.0 | 4.0 | 0.00 | 0.00 | 0.00 | 95 | |
| 20260507123531 | 47 | 342 | 3.0 | 6.0 | 0.00 | 0.00 | 0.00 | 95 | |
| 20260507122519 | 47 | 334 | 2.0 | 4.0 | 0.00 | 0.00 | 0.00 | 96 | |
| 20260507121546 | 47 | 327 | 2.0 | 4.0 | 0.00 | 0.00 | 0.00 | 96 | |
| 20260507120523 | 47 | 328 | 1.0 | 4.0 | 0.00 | 0.00 | 0.00 | 96 | |
| 20260507115531 | 47 | 332 | 1.0 | 4.0 | 0.00 | 0.00 | 0.00 | 96 | |
| 20260507114526 | 47 | 333 | 2.0 | 4.0 | 0.00 | 0.00 | 0.00 | 96 | |
| 20260507113527 | 47 | 330 | 1.0 | 4.0 | 0.00 | 0.00 | 0.00 | 97 | |
| 20260507112523 | 47 | 341 | 2.0 | 4.0 | 0.00 | 0.00 | 0.00 | 97 | |
| 20260507111531 | 47 | 332 | 2.0 | 5.0 | 0.00 | 0.00 | 0.00 | 97 | |
| 20260507110523 | 47 | 345 | 3.0 | 7.0 | 0.00 | 0.00 | 0.00 | 96 | |
| 20260507105527 | 47 | 341 | 2.0 | 4.0 | 0.00 | 0.00 | 0.00 | 96 | |
| 20260507104524 | 47 | 337 | 3.0 | 6.0 | 0.00 | 0.00 | 0.00 | 96 | |
| 20260507103534 | 47 | 346 | 3.0 | 6.0 | 0.00 | 0.00 | 0.00 | 96 | |
| 20260507102526 | 47 | 343 | 4.0 | 7.0 | 0.00 | 0.00 | 0.00 | 96 | |
| 20260507101531 | 47 | 352 | 2.0 | 4.0 | 0.00 | 0.00 | 0.00 | 96 | |
| 20260507100527 | 47 | 344 | 3.0 | 5.0 | 0.00 | 0.00 | 0.00 | 96 | |
| 20260507095522 | 47 | 340 | 2.0 | 4.0 | 0.00 | 0.00 | 0.00 | 97 | |
| 20260507094523 | 47 | 341 | 3.0 | 5.0 | 0.00 | 0.00 | 0.00 | 97 | |
| 20260507093531 | 47 | 345 | 3.0 | 4.0 | 0.00 | 0.00 | 0.00 | 97 | |
| 20260507092523 | 47 | 345 | 3.0 | 7.0 | 0.00 | 0.00 | 0.00 | 96 | |
| 20260507091527 | 47 | 338 | 2.0 | 4.0 | 0.00 | 0.00 | 0.00 | 96 | |
| 20260507090523 | 47 | 351 | 3.0 | 7.0 | 0.00 | 0.00 | 0.00 | 96 | |
| 20260507085531 | 47 | 340 | 4.0 | 7.0 | 0.00 | 0.00 | 0.00 | 96 | |
| 20260507084523 | 47 | 353 | 3.0 | 7.0 | 0.00 | 0.00 | 0.00 | 97 | |
| 20260507083522 | 47 | 334 | 3.0 | 6.0 | 0.00 | 0.00 | 0.00 | 97 | |
| 20260507082522 | 47 | 355 | 3.0 | 5.0 | 0.00 | 0.00 | 0.00 | 97 | |
| 20260507081531 | 46 | 343 | 3.0 | 5.0 | 0.00 | 0.00 | 0.00 | 97 | |
| 20260507080526 | 46 | 353 | 4.0 | 7.0 | 0.00 | 0.00 | 0.00 | 97 | |
| 20260507075533 | 46 | 337 | 3.0 | 6.0 | 0.00 | 0.00 | 0.00 | 97 | |
| 20260507074523 | 46 | 341 | 3.0 | 6.0 | 0.00 | 0.00 | 0.00 | 97 | |
| 20260507073522 | 46 | 341 | 3.0 | 5.0 | 0.00 | 0.00 | 0.00 | 97 | |
| 20260507072523 | 46 | 341 | 3.0 | 7.0 | 0.00 | 0.00 | 0.00 | 97 | |
| 20260507071534 | 46 | 344 | 2.0 | 5.0 | 0.00 | 0.00 | 0.00 | 97 | |
| 20260507070523 | 46 | 346 | 3.0 | 8.0 | 0.00 | 0.00 | 0.00 | 97 | |
| 20260507065534 | 46 | 340 | 4.0 | 7.0 | 0.00 | 0.00 | 0.00 | 97 | |
| 20260507064523 | 46 | 348 | 4.0 | 7.0 | 0.00 | 0.00 | 0.00 | 97 | |
| 20260507063536 | 46 | 343 | 2.0 | 5.0 | 0.00 | 0.00 | 0.00 | 98 | |
| 20260507062526 | 46 | 347 | 2.0 | 6.0 | 0.00 | 0.00 | 0.00 | 98 | |
| 20260507061531 | 46 | 346 | 3.0 | 7.0 | 0.00 | 0.00 | 0.00 | 98 | |
| 20260507060527 | 47 | 340 | 2.0 | 3.0 | 0.00 | 0.00 | 0.00 | 98 | |
| 20260507055531 | 46 | 342 | 2.0 | 4.0 | 0.00 | 0.00 | 0.00 | 98 | |
| 20260507054538 | 46 | 343 | 3.0 | 8.0 | 0.00 | 0.00 | 0.00 | 98 | |
| 20260507053531 | 47 | 341 | 2.0 | 4.0 | 0.00 | 0.00 | 0.00 | 98 | |
| 20260507052524 | 47 | 339 | 1.0 | 4.0 | 0.00 | 0.00 | 0.00 | 98 | |
| 20260507051531 | 47 | 337 | 2.0 | 3.0 | 0.00 | 0.00 | 0.00 | 98 | |
| 20260507050523 | 47 | 339 | 2.0 | 4.0 | 0.00 | 0.00 | 0.00 | 98 | |
| 20260507045534 | 47 | 319 | 1.0 | 2.0 | 0.00 | 0.00 | 0.00 | 98 | |
| 20260507044525 | 47 | 356 | 2.0 | 6.0 | 0.00 | 0.00 | 0.00 | 98 | |
| 20260507043529 | 47 | 341 | 3.0 | 7.0 | 0.00 | 0.00 | 0.00 | 98 | |
| 20260507042522 | 47 | 341 | 2.0 | 7.0 | 0.00 | 0.00 | 0.00 | 98 | |
| 20260507041530 | 47 | 343 | 1.0 | 4.0 | 0.00 | 0.00 | 0.00 | 98 | |
| 20260507040523 | 47 | 352 | 2.0 | 7.0 | 0.00 | 0.00 | 0.00 | 98 | |
| 20260507035532 | 47 | 337 | 2.0 | 5.0 | 0.00 | 0.00 | 0.00 | 98 | |
| 20260507034527 | 47 | 351 | 2.0 | 4.0 | 0.00 | 0.00 | 0.00 | 98 | |
| 20260507033534 | 47 | 353 | 1.0 | 4.0 | 0.00 | 0.00 | 0.00 | 98 | |
| 20260507032523 | 47 | 344 | 2.0 | 4.0 | 0.00 | 0.00 | 0.00 | 98 | |
| 20260507031527 | 47 | 337 | 2.0 | 4.0 | 0.00 | 0.00 | 0.00 | 98 | |
| 20260507030522 | 47 | 341 | 1.0 | 3.0 | 0.00 | 0.00 | 0.00 | 98 | |
| 20260507025522 | 47 | 328 | 1.0 | 2.0 | 0.00 | 0.00 | 0.00 | 98 | |
| 20260507024522 | 47 | 344 | 1.0 | 4.0 | 0.00 | 0.00 | 0.00 | 98 | |
| 20260507023534 | 47 | 345 | 2.0 | 3.0 | 0.00 | 0.00 | 0.00 | 98 | |
| 20260507022526 | 47 | 343 | 2.0 | 3.0 | 0.00 | 0.00 | 0.00 | 98 | |
| 20260507021531 | 47 | 339 | 2.0 | 3.0 | 0.00 | 0.00 | 0.00 | 98 | |
| 20260507020523 | 47 | 341 | 2.0 | 4.0 | 0.00 | 0.00 | 0.00 | 98 | |
| 20260507015533 | 47 | 345 | 3.0 | 7.0 | 0.00 | 0.00 | 0.00 | 98 |